Погода в Тагильском

Россия / Курганская область     55°55′28″N   64°25′37″E
темп.,
°C
ветер,
м/с
пор.,
м/с
влажн.,
%
обл.,
%
осадки,
мм/ч
давл.,
гПа
погр.,
м
27 ноября, сб
сб2723:00−6ююз71685100 0.0 1021342
02:00−5юз71787100 0.0 1021392
05:00−4юз8178912 0.0 1021420
08:00−3юз81691100 0.0 1021517
11:00−2юз81787100 0.0 1022669
14:00−1зюз81679100 0.0 1023827
17:00−1зюз71579100 0.0 1024596
20:00−2зюз71583100 0.0 1025548
28 ноября, вс
вс2823:00−3зюз6148613 0.0 1026444
02:00−5юз5129156 0.0 1028255
05:00−6юз5119149 0.0 1029218
08:00−7юз41087100 0.0 1029163
11:00−6ююз488374 0.0 1030149
14:00−4ююз49745 0.0 1028249
17:00−7ююз51371100 0.0 1028248
20:00−5ююз61472100 0.0 1027327
29 ноября, пн
пн2923:00−4ююз61476100 0.0 1026333
02:00−5ююз61475100 0.0 1025326
05:00−5ююз61474100 0.0 1024300
08:00−6ююз51278100 0.0 1023257
11:00−5ююз510797 0.0 1023231
14:00−3ююз598171 0.0 1023222
17:00−3ююз5983100 0.0 1022195
20:00−2юз4987100 0.0 1022184
30 ноября, вт
вт3023:000юз4891100 0.0 1022186
02:000юз3894100 0.0 1022165
05:000юз379498 0.0 1022164
08:000ююз379373 0.0 1022122
11:00−1ююз499091 0.0 1023195
14:00+1ю512855 0.0 1020296
17:00−1ю6148791 0.0 1019314
20:00−3ю7178196 0.0 1017345
1 декабря, ср
ср123:00−3ю81865100 0.0 1015392
02:00−3ю81961100 0.0 1013439
05:00−3ююз81867100 0.0 1011455
08:00−2ююз81769100 0.1 1010414
11:00−2ююз71887100 1.6 1009438
14:00−1ююз81790100 1.4 1009452
17:00−1ю71584100 3.3 1007368
20:00−1ю71579100 0.4 1006379